P/2014 W4 ( PanSTARRS )

Japanese version
Home page
Updated on May 22, 2017

---------------------------------------------------------------------

* Profile

Discovery Date November 18, 2014
Magnitude 20.7 mag
Discoverer Pan-STARRS 1 telescope (Haleakala)

* Pictures

* Orbital Elements

Epoch 2016 Jan. 13.0 TT = JDT 2457400.5
T 2015 Dec. 29.68489 TT                                 MPCW
q   4.2610347            (2000.0)            P               Q
n   0.05830291     Peri.   67.43547     -0.16924587     -0.97487310
a   6.5868219      Node    33.35281     +0.77949706     -0.22233387
e   0.3530970      Incl.   15.27442     +0.60310876     +0.01378747
P  16.90
From 78 observations 2014 Oct. 25-2017 Feb. 18, mean residual 0".3.

* Magnitudes Graph

        m1 = 10.5 + 5 log d + 10.0 log r

---------------------------------------------------------------------

The orbital elements are published on M.P.E.C. 2017-E59.
The magnitudes graphs are made with Comet for Windows.

---------------------------------------------------------------------

Copyright(C) Seiichi Yoshida (comet@aerith.net). All rights reserved.